Location: ??????????
(42.1626°N, 44.1160°E)
Time: 14:58:41
(UTC+00:00)

FENGYUN 1C DEB - Visible Passes

Search period start: 25 September 2021 00:00
Search period end: 05 October 2021 00:00
Orbit: 834 x 1131 km, 99.1° (Epoch: 24 September)

Date Brightness Start Highest point End Pass type
(mag) Time Alt. Az. Time Alt. Az. Time Alt. Az.
25 Sep ? 22:22:30 14° NNE 22:22:30 14° NNE 22:23:24 10° N visible
26 Sep ? 00:07:19 11° NNW 00:07:19 11° NNW 00:07:28 10° NNW visible
26 Sep ? 22:49:55 15° N 22:49:55 15° N 22:50:47 10° N visible
27 Sep ? 23:17:20 13° N 23:17:20 13° N 23:17:54 10° N visible
28 Sep ? 23:44:45 10° NNW 23:44:45 10° NNW 23:44:47 10° NNW visible
29 Sep ? 22:27:20 11° N 22:27:20 11° N 22:27:32 10° N visible
30 Sep ? 22:54:44 11° N 22:54:44 11° N 22:54:52 10° N visible
